Regional Weather Roundup
Issued by NWS

Home | Current Version | Previous Version | Text Only | Print | Product List | Glossary Off
Versions: 1 2 3 4 5 6 7 8 9 10 11 12 13 14 15 16 17 18 19 20 21 22 23 24 25 26 27 28 29 30 31 32 33 34 35 36 37 38 39 40 41 42 43 44 45 46 47 48 49 50

000
ASUS43 KMPX 181610
RWRMN
WEATHER ROUNDUP FOR MINNESOTA
NATIONAL WEATHER SERVICE TWIN CITIES/CHANHASSEN MN
1000 AM CST THU JAN 18 2018


NOTE: "FAIR" INDICATES FEW OR NO CLOUDS BELOW 12,000 FEET WITH NO
SIGNIFICANT WEATHER AND/OR OBSTRUCTIONS TO VISIBILITY. N/A MEANS
CURRENT SKY AND/OR WEATHER CONDITIONS ARE NOT AVAILABLE.

MNZ060>063-068>070-181700-
   Twin Cities Metro

CITY           SKY/WX    TMP DP  RH WIND       PRES   REMARKS
TWIN CITIES    FAIR      28  20  71 SW10      29.89R WCI  19
ST PAUL        FAIR      26  19  74 CALM      29.90R
CRYSTAL        FAIR      28  17  63 SW10      29.87R WCI  19
BLAINE         SUNNY     30  21  69 SW9       29.86R WCI  22
LAKEVILLE      FAIR      28  19  69 SW5       29.89R WCI  23
EDEN PRAIRIE   FAIR      26  18  71 SW10      29.88R WCI  16
SOUTH ST PAUL  FAIR      29  20  68 SW6       29.88S WCI  23
LAKE ELMO      FAIR      28  21  74 SW8       29.89R WCI  20
$$
MNZ001>005-007-008-013>017-022>024-027-028-181700-
   Northwest Minnesota

CITY           SKY/WX    TMP DP  RH WIND       PRES   REMARKS
BEMIDJI        CLOUDY    29  24  79 W8        29.75R WCI  21
HALLOCK        CLOUDY    25  18  74 CALM      29.77R
ROSEAU         CLOUDY    25  18  74 W3        29.74F
WARROAD        FAIR      21  16  79 NW5       29.73F WCI  15
THIEF RVR FALL CLOUDY    28  22  78 NW3       29.77S
CROOKSTON      FAIR      18  14  86 CALM      29.79R
FOSSTON        CLOUDY    23  18  80 S3        29.77S
DETROIT LAKES  FAIR      30  21  69 W7        29.80R WCI  23
MOORHEAD       FAIR      21  18  86 S5        29.81F WCI  15
PARK RAPIDS    FAIR      26  19  74 W6        29.77R WCI  19
MAHNOMEN       FAIR      20  15  83 SW7       29.78S WCI  11
$$
MNZ006-009>011-018-025>026-181700-
   North Central Minnesota

CITY           SKY/WX    TMP DP  RH WIND       PRES   REMARKS
BAUDETTE       CLOUDY    26  20  77 W8        29.72R WCI  18
FLAG ISLAND    CLOUDY    23  16  74 NW13      29.71R WCI  11
INTL FALLS     CLOUDY    28  24  85 W12       29.69R WCI  18
WASKISH        CLOUDY    28  23  80 W12       29.75R WCI  18
BIG FORK       CLOUDY    30  25  80 W5        29.72R WCI  25
LONGVILLE      CLOUDY    28  21  74 SW6       29.76R WCI  22
GRAND RAPIDS   CLOUDY    33  25  72 NW10      29.75R WCI  25
CRANE LAKE     CLOUDY    30  27  86 CALM      29.70R
ORR            CLOUDY    28  23  80 W9        29.68R WCI  20
COOK           CLOUDY    30  25  80 W8        29.70R WCI  23
WALKER         CLOUDY    31  23  73 W6        29.76R WCI  25
$$
MNZ012-019>021-037-181700-
   Northeast Minnesota

CITY           SKY/WX    TMP DP  RH WIND       PRES   REMARKS
DULUTH         CLOUDY    31  23  72 W12       29.71R WCI  22
ELY            CLOUDY    28  28 100 W6        29.68R WCI  22
HIBBING        CLOUDY    31  25  78 NW15G23   29.71R WCI  20
EVELETH        CLOUDY    29  22  74 W7        29.71R WCI  22
DULUTH HARBOR  CLOUDY    30  25  80 SW13      29.76R WCI  20
TWO HARBORS    CLOUDY    36  27  69 W8        29.70R
SILVER BAY     CLOUDY    34  27  75 W6        29.68R WCI  29
GRAND MARAIS     N/A     32  28  85 W6        29.69R WCI  26
G MARAIS ARPRT CLOUDY    28  23  80 W9        29.63R WCI  20
$$
MNZ029>031-032-039>041-046>048-054>057-064-181700-
   West Central Minnesota

CITY           SKY/WX    TMP DP  RH WIND       PRES   REMARKS
FERGUS FALLS   FAIR      25  19  80 NW3       29.83S
WHEATON        CLOUDY    36  21  55 W6        29.85S
MORRIS         SUNNY     36  25  64 W8        29.83S
ALEXANDRIA     FAIR      34  22  61 W12       29.82R WCI  25
ELBOW LAKE     FAIR      27  22  80 SW5       29.84R HAZE    WCI  22
WADENA         FAIR      28  19  69 W6        29.79R WCI  22
GLENWOOD       FAIR      30  21  69 W9        29.84R WCI  22
APPLETON       SUNNY     30  21  69 CALM      29.86S
BENSON         CLOUDY    30  21  69 SW5       29.86S WCI  25
ORTONVILLE     SUNNY     39  23  52 NW6       29.84S
MADISON        SUNNY     43  25  49 W6        29.85S
WILLMAR        FAIR      28  21  74 SW7       29.89R WCI  21
$$
MNZ033>034-036-042>043-049>051-058-059-181700-
   Central Minnesota

CITY           SKY/WX    TMP DP  RH WIND       PRES   REMARKS
ST CLOUD       FAIR      28  21  75 SW8       29.83R WCI  20
SAUK CENTRE      N/A     31  22  68 W12G17    29.83R WCI  22
PAYNESVILLE    FAIR      32  25  76 W9        29.85R WCI  24
AITKIN         CLOUDY    30  19  64 SW7       29.77R WCI  23
PINE RIVER     FAIR      28  19  69 W6        29.82R WCI  22
BRAINERD       FAIR      31  21  66 W7        29.79R WCI  24
STAPLES        FAIR      27  19  74 W8        29.80R WCI  18
LONG PRAIRIE   FAIR      32  23  69 SW10      29.82R WCI  24
LITTLE FALLS   FAIR      32  18  55 W6        29.82R WCI  26
LITCHFIELD     FAIR      34  25  69 W7        29.86S WCI  28
BUFFALO        FAIR      27  19  72 SW7       29.87S WCI  20
MAPLE LAKE     FAIR      31  22  70 MISG      29.86R
HUTCHINSON     FAIR      32  24  72 W6        29.88S WCI  26
$$
MNZ037-044-045-052-053-181700-
   East Central Minnesota

CITY           SKY/WX    TMP DP  RH WIND       PRES   REMARKS
PRINCETON      FAIR      32  21  64 SW8       29.83R WCI  25
MORA           FAIR      28  19  69 SW5       29.83R WCI  23
CAMBRIDGE      FAIR      32  21  64 SW5       29.84R WCI  27
RUSH CITY      FAIR      30  20  65 SW8       29.84R WCI  23
MOOSE LAKE     FAIR      28  21  74 SW3       29.76R
HINCKLEY       FAIR      28  21  74 SW6       29.81R WCI  22
CLOQUET        CLOUDY    30  21  69 W8        29.73R WCI  23
MCGREGOR       PTSUNNY   32  23  69 W7        29.77R WCI  26
$$
MNZ071>073-080-081-089-090-097-098-181700-
   Southwest Minnesota

CITY           SKY/WX    TMP DP  RH WIND       PRES   REMARKS
MONTEVIDEO     SUNNY     36  27  69 CALM      29.86S
GRANITE FALLS  SUNNY     33  25  72 S12       29.87F WCI  24
CANBY          SUNNY     41  23  48 SW16G22   29.85S
MARSHALL       SUNNY     37  23  56 SW21G29   29.85F
REDWOOD FALLS  SUNNY     30  23  75 SW12      29.88S WCI  20
OLIVIA         SUNNY     30  23  74 SW5       29.88R WCI  25
PIPESTONE      CLOUDY    25  19  80 SW5       29.90S WCI  19
WINDOM         SUNNY     30  12  47 SW10      29.92S WCI  21
WORTHINGTON    CLOUDY    27  20  75 SW13      29.93S WCI  16
JACKSON        SUNNY     28  21  74 SW13      29.94R WCI  18
SLAYTON        CLOUDY    27  21  77 SW9       29.92R WCI  18
$$
MNZ065>067-074>077-082>085-091>093-181700-
   South Central Minnesota

CITY           SKY/WX    TMP DP  RH WIND       PRES   REMARKS
MANKATO        FAIR      27  20  75 SW13      29.92R WCI  16
NEW ULM        SUNNY     30  21  69 SW6       29.90F WCI  24
ST JAMES       SUNNY     34  25  69 SW15G22   29.91S WCI  24
FAIRMONT       SUNNY     29  22  75 SW16      29.93S WCI  17
FARIBAULT      FAIR      25  18  74 S12       29.92R WCI  14
OWATONNA       FAIR      25  18  74 SW10      29.93R WCI  15
WASECA         FAIR      23  18  80 SW13      29.94S WCI  11
ALBERT LEA     FAIR      25  16  68 SW8       29.94R WCI  16
$$
MNZ078>079-086>088-094>096-181700-
   Southeast Minnesota

CITY           SKY/WX    TMP DP  RH WIND       PRES   REMARKS
ROCHESTER      FAIR      24  18  77 SW13      29.92R WCI  12
RED WING       FAIR      27  16  63 SW7       29.90F WCI  19
STANTON        FAIR      26  19  73 S8        29.89S WCI  18
DODGE CENTER   FAIR      21  16  79 SW15      29.91R WCI   8
WINONA         FAIR      28  18  64 S3        29.94F
AUSTIN         FAIR      21  16  79 SW9       29.95R WCI  11
PRESTON        FAIR      23  15  71 SW13      29.94S WCI  12
$$
ABBREVIATIONS USED IN REMARKS
   TC - TEMPERATURES IN CELSIUS
  WCI - WIND CHILL INDEX
   HX - HEAT INDEX
  VSB - VISIBILITY
$$



USA.gov is the U.S. government's official web portal to all federal, state and local government web resources and services.